Flag for Japan Weather past 2 weeks in Sapporo, Japan

Now
28 °F

Chilly.


Feels Like: 19 °F
Forecast: 18 / 33 °F
Wind: 9 mph from Southeast

Location: Sapporo

Current Time: Jan 30, 2015 at 7:51:26 AM

Latest Report: Jan 30, 2015 at 7:00 AM


Visibility: N/A

Pressure: 30.21 "Hg

Humidity: 73%

Dew point: 20 °F

Location of SapporoLocation

Historic Weather in Sapporo — Graph

°F

Sapporo temperature yesterday

Maximum temperature yesterday: 31 °F (at 2:00 PM)
Minimum temperature yesterday: 22 °F (at 5:00 AM)
Average temperature yesterday: 26 °F

Past Weeks' High & Low Weather Summary

 TemperatureHumidityPressure
High40 °F (Jan 27, 8:00 AM)93% (Jan 22, 7:00 PM)30.39 "Hg (Jan 22, 7:00 PM)
Low19 °F (Jan 18, 10:00 PM)33% (Jan 28, 10:00 AM)29.44 "Hg (Jan 17, 12:00 PM)
Average29 °F71%30.00 "Hg
* Reported Jan 15 5:00 AM — Jan 30 5:00 AM, Sapporo, Weather by CustomWeather, © 2014

Note: Actual official high and low records may vary slightly from our data, if they occured in-between our weather recording intervals... More about our weather records

Advertising

Sapporo weather history for previous 24 hours

 ConditionsComfort  
Time TempWeatherWind HumidityBarometerVisibility
5:00 AM
Jan 30
28 °FChilly.8 mph61%30.21 "HgN/A
4:00 AM27 °FChilly.6 mph61%30.22 "HgN/A
3:00 AM26 °FOvercast.8 mph63%30.23 "Hg9 mi
2:00 AM27 °FChilly.7 mph60%30.24 "HgN/A
1:00 AM27 °FChilly.8 mph59%30.25 "HgN/A
12:00 AM28 °FChilly.7 mph58%30.25 "HgN/A
11:00 PM
Jan 29
27 °FChilly.10 mph57%30.26 "HgN/A
10:00 PM28 °FChilly.9 mph57%30.27 "HgN/A
9:00 PM28 °FOvercast.7 mph57%30.29 "Hg9 mi
8:00 PM27 °FChilly.7 mph52%30.29 "HgN/A
7:00 PM28 °FChilly.9 mph55%30.29 "HgN/A
6:00 PM28 °FPassing clouds.6 mph55%30.27 "Hg12 mi
5:00 PM29 °FChilly.3 mph53%30.27 "HgN/A
4:00 PM29 °FChilly.3 mph52%30.24 "HgN/A
3:00 PM31 °FScattered clouds.1 mph46%30.24 "Hg12 mi
2:00 PM31 °FChilly.8 mph49%30.23 "HgN/A
1:00 PM30 °FChilly.1 mph34%30.23 "HgN/A
11:00 AM29 °FChilly.1 mph41%30.23 "HgN/A
10:00 AM27 °FChilly.7 mph54%30.24 "HgN/A
9:00 AM26 °FPassing clouds.2 mph53%30.24 "Hg12 mi
8:00 AM24 °FCold.3 mph58%30.23 "HgN/A
7:00 AM24 °FCold.3 mph58%30.22 "HgN/A
Weather by CustomWeather, © 2014

See weather overviewHow to use our weather pages